Regional Weather Roundup
Issued by NWS

Home | Current Version | Previous Version | Graphics & Text | Print | Product List | Glossary On
Versions: 1 2 3 4 5 6 7 8 9 10 11 12 13 14 15 16 17 18 19 20 21 22 23 24 25 26 27 28 29 30 31 32 33 34 35 36 37 38 39 40 41 42 43 44 45 46 47 48 49 50
000
ASUS45 KTFX 250504
RWRMT
MONTANA HOURLY WEATHER ROUNDUP
NATIONAL WEATHER SERVICE GREAT FALLS MT
1004 PM MST WED DEC 24 2014

NOTE: "FAIR" INDICATES FEW OR NO CLOUDS BELOW 12000 FEET WITH NO
SIGNIFICANT WEATHER AND/OR OBSTRUCTIONS TO VISIBILITY.

* THESE STATIONS ARE NOT UNDER NWS QUALITY CONTROL. THEY DO NOT
   REPORT WEATHER SUCH AS PRECIPITATION OR FOG.

MTZ001>007-043-250600-
WEST OF THE DIVIDE
CITY           SKY/WX    TMP DP  RH WIND       PRES   REMARKS
KALISPELL      CLOUDY    30  30 100 N7        29.63R WCI  23
MISSOULA       CLOUDY    34  30  85 N10       29.59R WCI  26
BUTTE          CLOUDY    28  21  75 NW13      29.42R WCI  17
MULLAN PASS    LGT SNOW  25  21  85 NW8       29.55R VSB 1/2  WCI  16
* ESSEX        N/A       29  20  69 N/A        N/A
* LINCOLN      N/A       28  26  92 E6         N/A   WCI  21
* LOOKOUT PASS N/A       27  27 100 VRB6       N/A   WCI  20
* POLSON       N/A       30  30 100 NE1        N/A
* RONAN APT    CLOUDY    34  32  92 NW13       N/A   WCI  25
* SEELEY LAKE  N/A       31  29  92 SW2G10     N/A
* THOMP F APT  CLOUDY    23  21  92 NE5        N/A   WCI  16
* YAAK HILL    N/A       32  29  89 NE1        N/A
$$

MTZ008-052>055-250600-
SOUTHWEST MONTANA
CITY           SKY/WX    TMP DP  RH WIND       PRES   REMARKS
BOZEMAN        LGT SNOW  30  30 100 N8        29.44R VSB 3/4  WCI  22
DILLON         LGT SNOW  28  27  96 CALM      29.41R VSB 1 3/4
* W YELLOWSTON CLOUDY    21  19  92 N/A        N/A
* THREE FORKS  CLOUDY    32  32 100 SW5        N/A   WCI  27
* BOULDER HILL N/A       26  23  88 N16G23     N/A   WCI  13
* MONIDA PASS  N/A       21  21 100 E4         N/A
* RAYNOLDS PAS N/A       22  -1  36 SE8        N/A   WCI  13
* WHITEHALL    N/A       31  29  92 N10G18     N/A   WCI  22
* WISE RIVER   N/A       28  27  96 E2G8       N/A
$$

MTZ009>010-012-014-046-048-049-054-250600-
EAST SLOPES AND CENTRAL MONTANA
CITY           SKY/WX    TMP DP  RH WIND       PRES   REMARKS
CUT BANK       CLOUDY    27  21  78 NW10      29.64R WCI  18
GREAT FALLS    LGT SNOW  30  30 100 N17       29.57R VSB 1 1/4 WCI  18
HELENA         CLOUDY    30  28  92 W9        29.52R WCI  22
MALMSTROM AFB  LGT SNOW  30  30 100 N21G32    29.59R VSB 2 1/2 WCI  17
* DEARBORN     N/A       31  30  96 NE12G24    N/A   WCI  22
* EAST GLACIER N/A       22  20  92 NE11       N/A   WCI  11
* MONARCH      N/A       26  23  88 NE12       N/A   WCI  15
* PENDROY      N/A       25  25 100 NE22G27    N/A   WCI  10
* ROGERS PASS  N/A       24  22  92 SW4G12     N/A
* SWEET GRASS  N/A       25  23  92 N12        N/A   WCI  14
$$

MTZ011-013-016-021-035-040-045-047-050-051-250600-
NORTH CENTRAL MONTANA
CITY           SKY/WX    TMP DP  RH WIND       PRES   REMARKS
HAVRE          CLOUDY    30  28  92 NW3       29.62R
LEWISTOWN      LGT SNOW  30  27  89 E5        29.53R VSB 2 1/2 WCI  25
* N BAR RANCH  FOG       28  27  96 N7G20     29.52R VSB 1    WCI  21
* CHESTER      N/A       30  24  78 NE7G14     N/A   WCI  23
* DENTON       N/A       31  30  96 NE9        N/A   WCI  23
* GEYSER       N/A       28  28 100 N14        N/A   WCI  17
* JUDITH GAP   N/A       28  27  96 N20G25     N/A   WCI  15
* LOMA         N/A       31  29  92 N18G27     N/A   WCI  19
$$

MTZ017>020-022>027-061-062-250600-
NORTHEAST MONTANA
CITY           SKY/WX    TMP DP  RH WIND       PRES   REMARKS
GLASGOW        MOCLDY    27  21  78 N8        29.55R WCI  19
GLENDIVE       CLOUDY    30  28  92 NW9       29.53R WCI  22
JORDAN         CLOUDY    32  30  92 N7        29.53R WCI  25
SIDNEY         PTCLDY    27  21  78 W6        29.54R WCI  20
WOLF POINT     MOCLDY    28  21  75 CALM      29.55R
* BEAVER HILL  N/A       30  28  92 VRB5       N/A   WCI  25
* CIRCLE       N/A       32  28  85 N/A        N/A
* LINDSAY DVD  N/A       30  29  96 NW9        N/A   WCI  22
* NAVAJO       N/A       23  19  85 NW16       N/A   WCI  10
* SACO         N/A       28  24  85 NW6        N/A   WCI  21
$$

MTZ028>042-056>058-250600-
SOUTHCENTRAL AND SOUTHEAST MONTANA
CITY           SKY/WX    TMP DP  RH WIND       PRES   REMARKS
BAKER          CLOUDY    30  30 100 N3        29.48S
BILLINGS       LGT SNOW  32  30  92 NE14      29.48R VSB 1/2  WCI  22
LIVINGSTON     LGT SNOW  32  28  85 E10       29.43R VSB 1    WCI  24
MILES CITY     LGT SNOW  32  30  92 N8        29.51R WCI  25
* LAUREL APT   CLOUDY    32  21  64 N/A        N/A
* ROUNDUP APT  CLOUDY    30  27  89 N9         N/A   WCI  22
* ALZADA       N/A       34  25  70 N9         N/A   WCI  27
* HYSHAM       N/A       31  29  92 NE9G16     N/A   WCI  23
* LAME DEER    N/A      N/A N/A N/A N/A        N/A
* REED POINT   N/A       33  32  96 W1         N/A
* ROSCOE HILL  N/A       28  24  85 E1         N/A
$$

REGIONAL REPORTS...DAKOTAS
CITY           SKY/WX    TMP DP  RH WIND       PRES   REMARKS
WILLISTON      PTCLDY    21  18  88 SW6       29.51R WCI  13
DICKINSON      CLOUDY    30  27  89 NW6       29.46S WCI  24
BEACH          CLOUDY    28  28 100 NW5       29.51R WCI  22
CROSBY         CLOUDY    25  25 100 NW12      29.50R WCI  14
WATFORD CITY   CLEAR     23  23 100 SW3       29.49R
BISMARCK       CLOUDY    30  28  92 NW3       29.47S
GRAND FORKS    CLOUDY    30  27  89 S8        29.41F WCI  22
FARGO          CLOUDY    30  27  89 S13       29.47S WCI  20
BUFFALO SD     CLOUDY    34  30  85 NE13      29.39S WCI  25
RAPID CITY     CLOUDY    37  28  70 N10       29.40R WCI  30
$$

REGIONAL REPORTS...WYOMING/IDAHO/WASHINGTON
CITY           SKY/WX    TMP DP  RH WIND       PRES   REMARKS
GILLETTE       CLOUDY    36  25  64 N7        29.37R WCI  30
SHERIDAN       LGT SNOW  34  28  79 W8        29.42R WCI  27
CODY           CLOUDY    27  23  85 CALM      29.38S
YELLOWSTONE LA MOCLDY    21  19  92 CALM      29.41F
SALMON         CLOUDY    30  28  92 CALM      29.49R VSB 3
MULLAN PASS    LGT SNOW  25  21  85 NW8       29.55S VSB 1/2  WCI  16
SAND POINT     CLOUDY    30  30 100 CALM      29.72R
SPOKANE        PTCLDY    34  30  85 NW8       29.73R WCI  27
$$

REGIONAL REPORTS...ALBERTA
CITY           SKY/WX    TMP DP  RH WIND       PRES   REMARKS
EDMONTON       N/A       18  12  77 N12       29.77R WCI   5

$$



USA.gov is the U.S. government's official web portal to all federal, state and local government web resources and services.